Flag Weather past 2 weeks in Merida, Yucatán, Mexico

Now
73 °F

Broken clouds.


Feels Like: 77 °F
Forecast: 69 / 77 °F
Wind: 18 mph from North

Location: Aerop. Internacional Merida - Yuc

Current Time: Nov 26, 2014 at 9:37:55 AM

Latest Report: Nov 26, 2014 at 8:47 AM


Visibility: 7 mi

Pressure: 30.19 "Hg

Humidity: 57%

Dew point: 57 °F

Location of MeridaLocation

Historic Weather in Merida — Graph

°F

Merida temperature yesterday

Maximum temperature yesterday: 88 °F (at 12:50 PM)
Minimum temperature yesterday: 72 °F (at 11:47 PM)
Average temperature yesterday: 79 °F

Past Weeks' High & Low Weather Summary

 TemperatureHumidityPressure
High90 °F (Nov 17, 12:47 PM)100% (Nov 14, 2:53 AM)30.22 "Hg (Nov 14, 2:53 AM)
Low64 °F (Nov 13, 5:47 AM)40% (Nov 11, 1:44 PM)29.74 "Hg (Nov 23, 3:45 PM)
Average76 °F79%30.00 "Hg
* Reported Nov 11 7:45 AM — Nov 26 7:49 AM, Merida, Weather by CustomWeather, © 2014

Note: Actual official high and low records may vary slightly from our data, if they occured in-between our weather recording intervals... More about our weather records

Advertising

Merida weather history for previous 24 hours

 ConditionsComfort  
Time TempWeatherWind HumidityBarometerVisibility
7:49 AM
Nov 26
72 °FBroken clouds.10 mph65%30.18 "Hg7 mi
6:48 AM70 °FBroken clouds.6 mph69%30.15 "Hg7 mi
5:47 AM70 °FPassing clouds.7 mph64%30.13 "Hg5 mi
4:52 AM72 °FPassing clouds.12 mph65%30.12 "Hg5 mi
3:53 AM72 °FPassing clouds.12 mph65%30.11 "Hg5 mi
2:53 AM72 °FPassing clouds.No wind73%30.10 "Hg5 mi
1:53 AM72 °FPassing clouds.10 mph65%30.08 "Hg5 mi
12:53 AM72 °FOvercast.15 mph78%30.09 "Hg5 mi
11:47 PM
Nov 25
72 °FLight rain. Overcast.8 mph88%30.08 "Hg5 mi
10:46 PM73 °FOvercast.8 mph89%30.06 "Hg6 mi
8:51 PM77 °FLight rain. Overcast.12 mph83%30.01 "Hg6 mi
7:51 PM79 °FPassing clouds.12 mph89%29.99 "Hg7 mi
4:44 PM86 °FPartly sunny.12 mph62%29.89 "Hg7 mi
3:48 PM88 °FPartly sunny.8 mph62%29.87 "Hg7 mi
2:47 PM86 °FPartly sunny.5 mph66%29.89 "Hg7 mi
12:50 PM88 °FPartly sunny.10 mph62%29.91 "Hg6 mi
10:46 AM84 °FPartly sunny.9 mph74%29.96 "Hg7 mi
Weather by CustomWeather, © 2014

See weather overviewHow to use our weather pages